Date,TemperatureHighF,TemperatureAvgF,TemperatureLowF,DewpointHighF,DewpointAvgF,DewpointLowF,HumidityHigh,HumidityAvg,HumidityLow,PressureMaxIn,PressureMinIn,WindSpeedMaxMPH,WindSpeedAvgMPH,GustSpeedMaxMPH,PrecipitationSumIn
2013-2-1,18.5,14.3,10.1,8.2,5.6,3.1,73,68,63,29.49,29.39,6,3,6,0.00
2013-2-2,23.9,17.0,8.6,19.8,12.0,3.1,88,80,74,29.47,29.14,8,3,8,0.00
2013-2-3,25.2,22.0,17.6,20.2,17.2,11.8,90,82,67,29.19,29.02,8,2,8,0.00
2013-2-4,27.7,22.1,16.4,22.3,16.6,10.8,88,79,68,29.23,29.04,6,2,6,0.02
2013-2-5,31.3,27.5,25.2,27.6,24.3,22.1,92,88,79,29.12,29.01,5,1,5,0.00
2013-2-6,33.1,27.7,21.8,25.4,20.9,13.7,91,76,57,29.50,29.12,3,1,3,0.00
2013-2-7,43.7,31.3,20.5,30.2,22.9,14.2,80,71,58,29.47,29.15,3,1,3,0.00
2013-2-8,37.8,33.1,27.0,35.6,28.6,22.0,92,83,76,29.24,28.99,8,2,8,0.00
2013-2-9,37.8,28.4,23.4,22.6,17.4,14.9,72,63,53,29.56,29.51,5,1,5,0.00
2013-2-10,47.5,42.8,22.9,28.5,25.4,15.2,74,51,43,29.52,29.14,6,1,6,0.00
2013-2-11,58.9,49.3,37.1,46.9,34.7,26.0,85,58,40,29.11,28.87,22,6,22,0.00
2013-2-12,43.7,36.6,31.0,27.3,25.1,22.7,71,63,51,29.26,29.12,6,1,6,0.00
2013-2-13,37.8,34.0,25.6,30.3,27.9,22.2,91,79,70,29.03,28.88,3,1,3,0.00
2013-2-14,40.9,37.2,29.5,35.3,32.4,27.0,90,83,73,29.13,29.05,10,4,10,0.00
2013-2-15,40.0,34.6,26.3,28.7,27.1,20.9,88,74,60,29.25,29.18,8,2,8,0.00
2013-2-16,32.2,27.2,21.4,20.8,15.9,10.9,85,62,51,29.24,29.11,6,1,6,0.00
2013-2-17,22.1,18.9,14.9,14.5,9.2,4.5,87,66,55,29.41,29.19,6,2,6,0.00
2013-2-18,42.5,34.6,13.7,29.6,21.1,6.5,73,58,49,29.45,29.05,10,2,10,0.00
2013-2-19,44.8,34.9,22.7,38.4,28.3,16.0,88,77,53,29.12,28.85,17,6,17,0.00
2013-2-20,23.4,20.4,17.6,16.4,13.2,9.0,85,74,64,29.38,29.24,15,3,15,0.00
2013-2-21,27.4,22.3,19.1,18.0,15.0,12.1,87,74,64,29.52,29.44,7,1,7,0.00
2013-2-22,34.7,32.9,27.4,32.2,29.0,19.2,92,85,69,29.26,29.17,6,1,6,0.00
2013-2-23,42.1,38.8,33.3,36.1,32.8,27.6,90,79,71,29.18,29.05,6,1,6,0.00
2013-2-24,31.0,29.9,28.4,24.1,22.8,20.9,80,75,69,29.32,29.16,8,1,8,0.00
2013-2-25,41.9,36.7,25.6,28.4,26.4,22.2,87,67,54,29.40,29.31,5,1,5,0.00
2013-2-26,39.6,36.1,34.2,34.1,30.7,23.6,92,82,57,29.12,28.77,8,2,8,0.00
2013-2-27,43.9,39.6,33.5,38.5,35.8,31.2,93,86,75,28.87,28.80,12,3,12,0.00
2013-2-28,34.4,32.9,32.2,31.2,29.5,28.4,89,87,86,28.84,28.82,10,2,10,0.00